Home   Weather   Telfs   Past weeks

Flag for Austria Past Weather in Telfs, Tyrol, Austria — Yesterday and Last 2 Weeks

Now
57 °F

Clear.


Feels Like: 57 °F
Forecast: 57 / 72 °F
Wind: 2 mph from North

Location: Innsbruck-Flughafen

Current Time: Aug 31, 2016 at 6:33:50 AM

Latest Report: Aug 31, 2016 at 5:50 AM


Visibility: 10 mi

Pressure: 30.21 "Hg (28.03 "Hg at 630m altitude)

Humidity: 94%

Dew Point: 55 °F

Location of TelfsLocation

Past Weather in Telfs — Graph

°F

Telfs Temperature Yesterday

Maximum temperature yesterday: 79 °F (at 3:50 PM)
Minimum temperature yesterday: 61 °F (at 5:50 AM)
Average temperature yesterday: 68 °F

High & Low Weather Summary for the Past Weeks

 TemperatureHumidityPressure
High90 °F (Aug 27, 4:20 PM)100% (Aug 19, 6:20 AM)30.48 "Hg (Aug 19, 6:20 AM)
Low48 °F (Aug 23, 6:20 AM)31% (Aug 25, 3:20 PM)29.83 "Hg (Aug 18, 3:50 PM)
Average68 °F74%30.12 "Hg
* Reported Aug 16 4:20 AM — Aug 31 4:50 AM, Telfs, Weather by CustomWeather, © 2016

Note: Actual official high and low records may vary slightly from our data, if they occured in-between our weather recording intervals... More about our weather records

Advertising

Telfs Weather History for the Previous 24 Hours

Scroll right to see more
 ConditionsComfort  
Time TempWeatherWind HumidityBarometerVisibility
4:50 AM
Wed, Aug 31
59 °FCool.6 mph88%30.21 "HgN/A
4:20 AM57 °FCool.3 mph94%30.21 "HgN/A
3:50 AM57 °FCool.1 mph94%30.21 "HgN/A
3:20 AM57 °FCool.No wind94%30.21 "HgN/A
2:50 AM59 °FCool.1 mph88%30.21 "HgN/A
2:20 AM61 °FCool.3 mph88%30.21 "HgN/A
1:50 AM61 °FCool.3 mph88%30.21 "HgN/A
1:20 AM61 °FPassing clouds.2 mph88%30.21 "HgN/A
12:50 AM63 °FPassing clouds.1 mph83%30.21 "HgN/A
12:20 AM63 °FMild.2 mph88%30.21 "HgN/A
11:50 PM
Tue, Aug 30
64 °FMild.2 mph78%30.21 "HgN/A
11:20 PM66 °FMild.5 mph73%30.21 "HgN/A
10:50 PM66 °FPassing clouds.3 mph73%30.21 "HgN/A
10:20 PM66 °FPassing clouds.3 mph78%30.21 "HgN/A
9:50 PM68 °FPassing clouds.5 mph73%30.21 "HgN/A
9:20 PM68 °FPassing clouds.2 mph73%30.18 "HgN/A
8:50 PM68 °FPassing clouds.5 mph73%30.18 "HgN/A
8:20 PM70 °FScattered clouds.6 mph69%30.18 "HgN/A
7:50 PM72 °FScattered clouds.6 mph65%30.15 "HgN/A
7:20 PM73 °FScattered clouds.6 mph61%30.15 "HgN/A
6:50 PM75 °FScattered clouds.8 mph57%30.15 "HgN/A
6:20 PM75 °FScattered clouds.15 mph57%30.15 "HgN/A
5:50 PM77 °FPassing clouds.14 mph54%30.12 "HgN/A
5:20 PM77 °FPassing clouds.15 mph51%30.12 "HgN/A
4:50 PM77 °FPassing clouds.13 mph51%30.15 "HgN/A
4:20 PM77 °FPassing clouds.12 mph51%30.15 "HgN/A
3:50 PM79 °FPassing clouds.10 mph45%30.15 "HgN/A
3:20 PM77 °FPassing clouds.10 mph51%30.15 "HgN/A
2:50 PM77 °FPassing clouds.9 mph54%30.15 "HgN/A
2:20 PM75 °FPassing clouds.8 mph54%30.18 "HgN/A
1:50 PM75 °FScattered clouds.7 mph61%30.18 "HgN/A
1:20 PM73 °FScattered clouds.7 mph57%30.18 "HgN/A
12:50 PM73 °FPassing clouds.5 mph61%30.21 "HgN/A
12:20 PM73 °FScattered clouds.6 mph65%30.21 "HgN/A
11:50 AM72 °FScattered clouds.6 mph65%30.21 "HgN/A
11:20 AM72 °FScattered clouds.5 mph69%30.24 "HgN/A
10:50 AM70 °FScattered clouds.7 mph69%30.24 "HgN/A
10:20 AM68 °FScattered clouds.2 mph78%30.24 "HgN/A
9:50 AM66 °FScattered clouds.3 mph78%30.24 "HgN/A
9:20 AM66 °FBroken clouds.3 mph78%30.24 "HgN/A
8:50 AM64 °FBroken clouds.1 mph88%30.24 "HgN/A
8:20 AM63 °FBroken clouds.1 mph94%30.24 "Hg5 mi
7:50 AM61 °FBroken clouds.1 mph100%30.24 "HgN/A
7:20 AM61 °FPartly cloudy.2 mph94%30.21 "HgN/A
6:50 AM61 °FPartly cloudy.1 mph94%30.21 "HgN/A
6:20 AM61 °FPartly cloudy.1 mph94%30.21 "Hg5 mi
Weather by CustomWeather, © 2016

See weather overviewHow to use our weather pages